Retour au catalogue

STARLINK-35080

ActifCommunicationsSSO
NORAD 65437·PAYLOAD·🇺🇸 United States

Lancé Sep 3, 2025 depuis Vandenberg Space Force Base

Loading…

Prochains Passages (prochaines 24 heures)

TLE

FraisSource: CelesTrak SupGP

Époque: Sep 15, 2026, 03:17 UTC

1 65437C 25194D   26258.13729167 -.00031328  00000+0 -97320-3 0  2585
2 65437  97.2849 107.8116 0001617  92.9165 243.1793 15.33431940    10

Suivez STARLINK-35080 en temps réel avec AllMySat

Download on the App Store